Home > Weather > Tallahassee > Past weeks

Flag for USA Past Weather in Tallahassee, Florida, USA — Yesterday and Last 2 Weeks

Now
79 °F

Clear.


Feels Like: 83 °F
Forecast: 77 / 89 °F
Wind: 3 mph from South

Location: Tallahassee Regional Airport

Current Time: Jul 26, 2016 at 12:33:08 AM

Latest Report: Jul 25, 2016 at 11:53 PM


Visibility: 10 mi

Pressure: 30.04 "Hg

Humidity: 88%

Dew Point: 75 °F

Location of TallahasseeLocation

Past Weather in Tallahassee — Graph

°F

Tallahassee Temperature Yesterday

Maximum temperature yesterday: 94 °F (at 1:53 PM)
Minimum temperature yesterday: 76 °F (at 6:53 AM)
Average temperature yesterday: 84 °F

High & Low Weather Summary for the Past Weeks

 TemperatureHumidityPressure
High97 °F (Jul 19, 3:53 PM)100% (Jul 15, 12:53 AM)30.24 "Hg (Jul 15, 12:53 AM)
Low73 °F (Jul 13, 1:53 AM)41% (Jul 13, 2:53 PM)29.95 "Hg (Jul 23, 4:53 PM)
Average83 °F76%30.09 "Hg
* Reported Jul 10 10:53 PM — Jul 25 10:53 PM, Tallahassee, Weather by CustomWeather, © 2016

Note: Actual official high and low records may vary slightly from our data, if they occured in-between our weather recording intervals... More about our weather records

Advertising

Tallahassee Weather History for the Previous 24 Hours

Scroll right to see more
 ConditionsComfort  
Time TempWeatherWind HumidityBarometerVisibility
10:53 PM
Mon, Jul 25
82 °FPassing clouds.3 mph79%30.03 "Hg10 mi
9:53 PM82 °FPassing clouds.3 mph79%30.02 "Hg10 mi
8:53 PM84 °FScattered clouds.6 mph72%30.01 "Hg10 mi
7:53 PM86 °FScattered clouds.9 mph63%29.99 "Hg10 mi
6:53 PM89 °FPartly sunny.10 mph59%29.99 "Hg10 mi
5:53 PM91 °FPassing clouds.13 mph56%29.99 "Hg10 mi
4:53 PM87 °FBroken clouds.6 mph63%29.99 "Hg10 mi
3:53 PM92 °FPartly sunny.8 mph54%29.99 "Hg10 mi
2:53 PM84 °FLight rain. Partly sunny.12 mph72%30.01 "Hg6 mi
1:53 PM94 °FPartly sunny.7 mph46%30.02 "Hg10 mi
12:53 PM92 °FPartly sunny.12 mph52%30.04 "Hg10 mi
11:53 AM90 °FScattered clouds.9 mph57%30.06 "Hg10 mi
10:53 AM87 °FScattered clouds.9 mph65%30.06 "Hg10 mi
9:53 AM85 °FPassing clouds.8 mph72%30.06 "Hg10 mi
8:53 AM81 °FPassing clouds.5 mph82%30.06 "Hg10 mi
7:53 AM77 °FPassing clouds.9 mph90%30.04 "Hg10 mi
6:53 AM76 °FPassing clouds.5 mph91%N/A10 mi
5:53 AM77 °FClear.No wind90%N/A10 mi
4:53 AM77 °FClear.N/A94%N/A10 mi
3:53 AM78 °FClear.6 mph93%N/A10 mi
2:53 AM78 °FClear.No wind93%N/A10 mi
1:53 AM79 °FClear.No wind90%N/A10 mi
12:53 AM80 °FClear.No wind90%N/A10 mi
Weather by CustomWeather, © 2016

See weather overviewHow to use our weather pages